GFSMA_250_spd_000.txt.gz
Wind_Speed
49 47 48 47 47 47 47 46 45 44 43 41 41 41 42 42 40 36 35 35 30 26 25 31 49 60 63 59 61 57 61 58 60 58 52 53 56 58 57 59 58 57 58
49 47 47 47 49 50 50 50 50 50 49 49 49 49 47 44 44 44 41 42 43 38 36 35 36 50 65 69 65 61 59 60 56 58 56 57 57 57 59 60 62 62 63
49 50 51 52 51 50 51 53 54 56 56 56 56 54 52 52 49 46 45 43 50 51 47 45 43 44 48 59 66 66 65 63 64 61 62 61 63 60 58 58 60 61 64
54 56 55 55 54 55 57 59 59 57 57 57 57 55 55 55 55 55 55 55 51 55 58 56 53 53 51 53 58 66 71 67 63 66 68 67 66 66 63 65 63 64 63
57 58 60 60 59 58 59 60 60 60 62 64 64 63 66 65 65 64 63 61 61 58 54 59 62 62 61 58 58 61 68 69 71 71 70 73 72 69 71 68 68 68 67
62 62 63 65 65 64 64 66 66 67 70 70 72 73 75 75 73 71 70 66 63 64 65 63 63 63 67 69 68 68 69 69 76 74 78 80 78 76 74 71 76 69 69
67 66 67 68 69 71 73 74 75 77 79 81 81 82 81 82 81 83 80 75 74 74 70 72 71 71 73 73 74 77 76 77 74 77 81 83 84 81 81 77 78 78 78
69 73 74 75 77 79 82 85 87 87 87 89 91 92 93 89 91 93 91 87 88 85 85 86 83 82 79 82 82 84 86 84 85 83 80 83 86 88 87 86 84 87 80
77 80 82 84 88 90 94 96 96 99 98 97 102 104 102 101 101 103 103 102 100 99 95 99 95 92 93 89 89 93 91 95 93 93 91 87 87 90 94 93 93 90 88
87 89 92 94 96 98 102 105 108 110 112 110 109 112 116 119 117 110 112 112 113 112 107 109 109 103 102 102 98 98 99 103 98 101 100 97 92 90 94 99 98 99 97
94 97 99 103 104 107 110 114 115 118 121 122 123 124 125 120 118 113 103 104 108 115 117 113 114 112 116 107 113 108 106 107 110 107 107 107 103 100 96 98 103 102 103
101 105 110 113 116 118 121 121 125 127 127 131 132 126 122 116 108 106 102 93 90 98 109 115 110 111 117 112 112 118 117 112 110 110 109 113 112 110 107 101 101 106 106
110 115 118 123 124 127 129 130 134 137 134 132 129 118 109 103 100 97 94 93 83 82 90 99 101 102 104 97 94 107 118 120 115 111 110 111 115 118 115 111 106 103 109
119 122 125 130 132 133 134 135 134 129 122 114 111 105 101 99 96 97 95 91 87 83 85 84 90 91 96 95 92 92 98 111 111 111 108 111 115 121 123 119 116 111 106
127 131 135 137 135 133 130 125 120 113 111 110 107 105 102 99 96 94 92 87 82 80 80 83 85 86 90 91 90 87 89 96 105 112 112 112 113 119 125 127 123 120 115
133 137 136 134 128 122 117 114 111 109 105 103 100 98 96 92 87 84 80 77 74 71 71 74 79 82 86 91 90 82 80 82 94 106 108 109 112 116 121 127 129 127 123
136 133 125 119 114 110 109 106 105 103 99 94 90 85 79 76 73 71 69 68 66 65 64 70 73 77 82 86 90 83 77 81 90 101 105 105 109 115 120 125 130 132 129
129 125 120 118 116 113 110 105 102 97 90 85 81 78 73 70 67 65 62 61 60 59 58 62 68 72 75 79 83 82 78 81 85 89 98 105 108 114 119 124 130 135 136
119 117 117 114 112 107 102 96 91 84 79 77 75 73 70 67 62 59 57 56 55 54 54 56 63 65 70 74 74 75 75 78 83 90 95 94 103 109 118 125 128 135 139
116 115 112 108 103 96 88 86 83 78 74 71 67 65 64 63 60 55 53 52 52 52 50 50 55 59 63 66 67 70 71 73 80 90 95 92 94 103 109 121 126 130 136
113 109 103 96 89 83 79 79 78 73 68 65 62 59 57 58 57 53 49 49 49 47 49 50 52 55 56 57 59 62 64 68 73 81 88 92 91 95 101 111 122 128 132
99 94 89 83 79 74 73 72 70 64 61 60 58 54 51 50 49 49 46 46 46 44 45 48 50 51 53 52 51 54 57 61 64 69 77 85 89 89 95 101 111 119 125
85 81 77 75 74 69 65 63 62 60 58 53 51 49 47 46 45 44 45 43 43 43 43 44 46 47 48 49 47 49 53 55 57 62 67 76 84 87 91 94 97 106 114
78 76 72 70 67 65 60 58 58 56 52 46 43 43 45 45 40 39 41 38 38 39 40 41 42 42 44 44 47 47 48 49 53 57 60 65 74 80 84 85 89 94 101
74 72 67 62 61 61 57 53 50 49 46 45 43 42 43 43 37 35 36 32 32 33 35 37 37 36 38 42 44 48 49 48 51 54 57 60 68 71 76 80 85 90 94
68 65 62 58 56 53 51 49 49 48 45 41 39 39 38 36 35 34 33 30 28 31 32 32 33 33 35 37 39 42 44 45 46 50 52 52 60 64 69 75 81 85 86

GFSMA_250_spd_003.txt.gz
Wind_Speed
54 51 49 48 46 48 49 49 50 50 48 46 44 44 42 41 40 39 38 39 37 32 32 32 31 49 58 53 57 64 62 65 62 63 65 56 60 57 59 60 60 62 66
52 54 50 50 51 53 53 53 51 51 50 48 47 47 47 45 44 45 42 40 43 44 40 39 40 40 50 64 58 61 63 66 62 62 67 59 56 55 54 58 63 63 63
52 54 55 56 54 54 54 55 54 52 50 48 49 49 48 48 48 49 48 45 44 44 47 46 46 49 49 49 64 67 68 66 68 68 72 69 67 63 62 59 61 61 60
59 62 59 59 60 59 56 57 56 55 56 56 55 53 53 54 55 56 55 53 54 54 54 54 51 54 56 58 56 65 73 76 73 73 72 76 74 68 68 63 63 63 62
61 61 62 64 64 62 62 63 63 64 65 66 65 62 61 60 61 63 63 64 65 64 61 62 62 61 58 63 65 65 65 74 77 80 77 76 75 72 68 68 69 67 65
66 67 68 67 68 66 66 68 71 73 73 72 72 72 74 75 75 75 74 74 73 72 72 72 69 69 69 65 68 72 73 72 72 74 81 84 80 78 77 73 73 72 68
68 70 73 74 73 73 76 79 80 80 82 83 82 82 83 84 85 86 86 86 84 78 79 78 79 78 76 75 75 74 80 81 81 78 79 84 86 86 83 80 78 77 72
74 74 76 78 79 81 85 88 89 88 90 94 96 95 92 91 94 93 94 96 95 93 91 88 83 83 86 86 83 83 81 87 89 87 85 84 87 90 89 89 86 84 82
81 84 86 87 88 90 93 96 100 101 102 104 109 109 106 103 100 102 104 103 102 101 101 100 101 98 98 94 94 93 90 90 91 95 94 93 89 89 92 94 92 90 88
89 92 96 98 100 102 105 107 110 113 115 116 115 118 119 118 113 107 109 111 113 112 114 116 114 112 113 110 105 104 103 103 99 97 98 100 98 96 94 98 99 96 95
96 100 103 106 110 115 118 120 121 124 123 121 120 121 125 123 117 109 100 104 109 111 110 112 115 111 116 116 114 114 112 111 111 110 103 105 107 107 104 100 100 104 101
106 110 111 114 118 122 124 125 125 124 122 122 123 121 114 110 109 107 100 89 89 93 92 91 92 96 104 110 110 115 118 119 116 116 116 114 111 114 112 109 106 104 105
112 116 122 126 130 131 129 129 128 127 122 117 114 109 105 102 99 97 95 90 88 86 89 91 89 86 90 94 101 108 114 114 122 126 126 123 119 118 120 117 115 112 108
121 126 126 130 134 133 130 126 122 116 110 106 103 101 97 94 92 91 89 86 83 81 85 90 91 86 86 87 90 97 102 107 118 127 127 125 120 119 122 124 122 119 117
127 131 134 135 132 129 124 119 114 110 107 104 100 96 92 90 87 86 84 81 77 76 76 82 85 86 85 85 90 95 99 99 109 118 123 130 128 120 122 124 127 126 123
135 136 136 131 125 120 116 110 108 106 103 100 94 88 86 82 79 77 74 71 67 62 65 71 73 78 81 81 84 90 92 100 101 104 106 118 129 128 124 122 122 125 129
139 130 128 123 117 112 109 106 103 98 93 88 84 80 78 74 71 69 67 65 62 58 56 67 66 70 74 76 81 88 89 93 96 95 94 99 119 128 124 120 125 126 125
129 126 123 116 112 107 104 98 94 90 85 79 76 73 70 69 68 65 62 60 59 59 55 61 64 65 67 71 74 80 85 89 93 91 90 99 107 113 116 119 125 127 128
118 118 115 111 108 102 97 91 86 83 77 73 71 70 66 63 63 62 58 55 53 54 54 55 60 62 63 66 69 72 77 81 84 85 85 97 104 107 111 112 118 123 128
108 106 102 97 92 86 82 79 78 76 72 69 67 64 62 60 57 56 54 54 51 51 52 53 56 56 59 61 64 65 68 73 75 76 78 90 99 105 106 108 111 116 122
103 94 88 83 78 76 73 73 73 69 66 64 62 61 60 57 54 51 51 51 46 45 48 49 52 54 54 56 57 57 60 64 69 72 75 83 94 102 105 107 112 115 119
93 86 80 74 73 72 69 68 67 64 63 61 59 58 55 52 49 45 44 45 42 40 41 42 45 47 49 50 51 51 52 54 58 62 69 75 85 96 100 101 103 108 111
85 80 75 72 71 68 64 63 62 59 57 54 51 50 49 46 44 40 39 38 36 35 37 37 38 40 40 42 43 48 48 50 54 59 66 73 79 86 92 96 97 100 105
80 77 73 69 65 63 61 58 56 55 53 50 48 47 46 42 38 37 39 35 32 34 36 35 36 36 39 38 40 42 44 48 52 55 58 65 72 80 84 88 92 95 98
76 74 68 64 62 61 58 55 52 51 48 44 42 40 40 38 36 36 35 32 32 32 32 32 32 34 36 36 39 41 42 46 50 52 53 60 65 72 77 82 87 91 94
71 69 64 60 58 56 54 51 49 46 43 41 39 37 35 35 33 32 30 29 30 29 30 30 29 30 32 34 37 39 41 43 45 47 44 54 61 65 70 77 82 85 89

GFSMA_250_spd_006.txt.gz
Wind_Speed
53 47 48 49 50 47 48 49 52 51 50 51 51 51 53 52 49 48 46 46 45 45 40 36 39 37 37 48 54 54 51 54 59 65 73 74 73 67 70 69 70 72 71
56 53 48 48 54 54 53 54 55 55 56 57 58 56 55 54 54 53 49 49 49 49 47 42 40 45 45 44 50 58 61 60 63 68 71 73 76 79 80 71 69 68 70
59 53 55 58 58 57 56 55 57 59 59 59 58 56 55 57 59 59 58 57 55 56 53 51 47 43 49 53 50 52 61 64 70 70 76 73 72 74 78 81 71 72 72
55 57 61 65 65 64 62 62 62 62 62 63 63 62 62 63 65 67 65 64 62 60 60 58 56 55 50 50 57 57 58 68 72 74 78 78 77 76 75 76 70 66 65
59 61 65 66 64 65 69 69 69 66 68 69 69 68 68 69 72 74 72 70 69 69 68 68 68 65 63 60 58 59 65 65 73 81 79 79 79 79 76 74 73 69 62
65 69 71 71 70 70 74 76 75 74 76 76 77 76 79 81 83 84 81 79 79 79 79 78 79 77 76 74 72 67 66 69 74 74 83 84 83 83 79 78 77 76 70
71 72 74 75 77 79 80 81 80 83 84 84 82 83 84 86 89 94 93 92 90 90 89 88 88 88 87 85 82 79 77 74 75 78 78 80 90 89 86 85 88 83 81
76 79 82 85 87 87 87 89 90 91 93 95 95 94 93 94 97 98 101 101 99 99 101 100 98 95 95 93 95 93 89 85 82 81 83 85 84 87 92 90 91 90 87
84 87 91 92 91 91 93 96 98 101 104 106 107 108 109 106 105 108 111 109 108 110 111 108 106 107 106 103 100 99 100 98 91 90 88 88 91 90 90 92 93 95 93
90 94 97 98 100 102 105 108 111 114 116 117 118 118 121 119 116 111 113 116 117 118 117 113 112 112 113 113 111 110 109 104 102 98 92 95 93 97 96 94 94 96 98
97 100 104 106 110 113 118 121 125 128 130 129 128 130 130 124 116 114 105 107 109 114 119 120 118 113 114 114 118 118 117 118 115 111 106 100 101 100 100 102 99 97 98
105 108 112 115 118 124 129 132 134 135 136 134 129 124 118 111 105 103 97 91 91 95 99 105 107 107 108 109 114 121 122 126 124 119 118 115 110 108 107 107 107 106 102
109 115 119 122 127 133 138 137 135 134 132 128 123 117 112 106 101 94 89 84 81 86 91 96 99 98 99 101 104 110 118 126 132 128 127 124 121 118 114 113 114 114 113
118 122 125 129 136 139 133 130 128 125 122 115 108 103 97 95 92 89 86 84 79 77 84 90 97 97 96 97 99 102 107 116 126 129 131 129 129 128 126 121 120 120 120
126 132 134 133 132 127 127 124 116 112 106 102 98 93 89 86 85 83 82 79 75 72 73 85 94 95 94 93 94 96 101 105 114 120 128 131 135 135 132 130 128 126 125
131 134 131 126 125 124 121 114 106 103 98 92 86 81 78 75 75 74 73 71 71 66 66 74 83 88 89 90 93 93 94 101 108 115 119 122 127 126 125 134 135 131 130
132 126 123 123 119 117 110 102 97 92 90 87 82 76 73 70 69 67 65 64 63 61 56 69 74 76 80 82 85 87 89 94 100 110 117 120 122 120 118 130 137 135 132
127 125 122 117 112 105 99 94 89 86 81 77 75 72 70 67 64 63 62 62 60 58 55 61 68 70 71 74 76 78 81 85 93 101 110 118 118 115 113 119 125 128 131
125 122 116 107 101 95 92 87 81 77 74 72 69 67 64 62 60 57 54 56 56 54 51 54 63 63 65 66 71 72 74 78 86 93 100 111 115 113 109 111 114 116 126
122 115 108 100 92 85 81 77 74 73 70 66 64 62 60 58 56 55 53 52 51 51 50 48 56 57 56 59 62 65 69 72 78 85 90 97 104 108 108 109 109 107 115
115 106 99 91 85 80 76 74 71 68 65 63 62 58 55 53 49 48 49 48 45 45 47 47 49 54 55 55 54 57 61 66 71 75 79 83 92 97 104 105 108 107 109
103 95 88 83 79 75 72 70 66 63 60 58 56 54 51 47 46 44 43 44 43 43 43 42 44 50 51 48 48 50 55 58 63 69 72 76 82 88 94 100 104 105 106
92 86 80 77 73 70 68 65 61 60 57 53 51 50 49 45 43 41 39 41 42 41 38 40 44 46 44 42 42 48 51 53 57 61 66 69 76 81 85 90 94 102 108
83 80 75 72 68 66 63 60 58 55 52 49 49 48 46 44 42 40 37 35 35 36 35 40 41 37 37 38 42 44 45 48 52 55 59 62 66 74 77 82 87 96 105
77 74 70 67 63 61 58 54 52 49 46 44 43 42 42 39 38 34 33 32 32 32 33 34 32 33 34 37 39 41 42 45 49 51 54 58 60 67 70 75 81 90 100
74 70 66 63 60 56 55 52 49 48 46 43 41 38 36 34 32 30 29 28 27 27 29 29 30 31 30 32 35 36 38 40 42 45 50 57 57 60 65 71 77 83 90

GFSMA_250_spd_009.txt.gz
Wind_Speed
57 56 57 57 63 64 56 53 53 57 58 58 57 57 56 56 57 56 55 54 53 50 46 43 43 45 44 41 38 47 47 49 48 58 84 91 95 100 86 89 76 76 78
66 66 63 62 60 60 56 56 57 58 58 59 61 61 61 62 62 60 58 56 54 52 51 50 49 49 47 45 47 43 54 55 53 55 59 64 85 85 90 86 76 71 73
64 63 65 66 64 61 59 60 61 61 60 62 62 64 65 67 66 65 64 63 60 57 56 56 56 55 53 50 47 53 50 56 60 62 59 59 63 70 86 89 79 75 75
64 67 70 70 67 62 62 65 66 64 64 66 68 69 70 71 71 69 68 68 67 66 65 63 63 62 60 58 56 50 57 60 57 65 70 68 64 71 78 76 81 84 80
68 70 71 72 67 67 68 69 70 70 70 71 74 76 78 78 78 77 77 77 75 74 75 75 74 72 69 68 65 62 60 57 64 62 71 74 73 71 76 81 77 79 81
70 72 72 70 72 73 74 76 77 80 81 81 81 80 82 84 86 85 85 85 84 83 83 83 84 83 80 79 75 73 71 66 63 69 71 74 77 80 78 80 89 83 86
75 74 74 74 75 77 79 81 83 86 89 90 91 89 88 89 90 91 92 93 93 93 94 92 92 91 92 90 88 86 82 80 76 71 72 77 76 80 82 85 88 90 87
75 76 78 79 82 85 89 90 91 93 96 98 98 98 96 99 102 103 104 105 105 106 106 105 102 99 98 99 100 97 95 92 89 87 81 79 80 81 83 81 88 93 92
79 82 86 89 91 93 97 100 102 105 107 108 111 111 110 109 110 115 120 120 118 116 116 114 114 113 110 109 108 107 107 103 102 99 95 89 86 84 88 85 85 90 96
85 89 93 96 101 104 108 111 114 119 121 123 124 127 129 129 128 123 125 127 126 121 119 120 122 122 124 120 117 118 115 114 113 109 107 101 96 92 90 92 90 87 90
91 96 103 106 109 113 116 121 124 126 128 130 130 128 126 125 124 120 113 116 119 124 126 121 119 118 119 122 122 125 125 123 121 121 115 110 107 104 97 96 96 95 92
100 104 107 113 117 120 124 127 129 130 130 128 127 124 121 119 118 116 108 99 101 106 109 114 113 111 108 108 111 119 125 128 132 129 128 122 116 115 108 103 102 100 99
102 108 114 116 122 127 130 130 130 127 126 125 124 122 117 112 107 102 97 91 87 90 94 98 101 104 106 104 105 108 112 117 126 133 133 130 126 123 119 115 110 107 104
108 115 121 126 131 131 126 125 122 122 119 118 115 110 103 98 97 94 89 84 79 77 83 89 94 97 100 101 102 102 105 111 116 125 129 131 131 129 128 125 122 114 111
116 122 126 129 127 129 123 120 119 116 112 105 99 93 88 85 83 82 79 75 70 67 70 78 87 92 96 96 96 99 101 105 109 115 120 125 129 130 131 132 129 123 118
122 125 125 125 123 122 122 118 111 104 99 93 88 84 79 74 73 72 70 68 66 62 61 66 77 83 87 88 89 94 99 101 105 109 112 115 123 130 133 133 129 128 129
124 127 125 122 120 117 117 110 103 96 90 86 80 76 73 70 68 67 65 65 64 61 58 60 68 75 77 77 79 83 89 96 101 106 108 112 115 124 131 133 129 131 136
126 123 120 120 117 113 107 102 96 90 83 78 75 73 71 68 65 62 60 60 59 59 54 55 62 71 71 69 72 74 78 84 91 99 104 108 114 116 123 125 127 133 137
122 119 119 114 110 104 98 93 87 81 78 74 70 67 65 65 63 61 57 54 53 55 54 53 58 63 66 66 66 68 71 73 78 85 93 102 110 114 116 119 121 124 133
119 117 111 106 101 96 91 85 81 77 73 70 67 64 62 61 59 56 54 53 51 51 50 50 56 57 59 61 60 60 64 65 72 76 80 90 100 108 114 112 115 116 124
117 112 106 98 93 88 82 78 75 72 69 66 63 61 59 57 53 51 52 51 50 49 46 44 49 53 56 57 54 53 57 61 66 72 74 79 87 97 103 107 111 111 115
112 103 96 90 84 79 75 72 70 67 64 62 59 57 56 52 49 47 44 43 45 47 44 42 43 47 48 52 52 50 54 57 64 71 71 74 78 84 88 99 106 108 107
103 94 90 83 78 73 70 69 66 63 60 56 54 54 53 49 47 45 41 38 39 41 41 39 39 44 44 43 45 47 50 55 59 63 67 70 75 78 79 86 96 103 105
95 88 82 77 72 68 66 64 61 57 54 53 52 52 52 48 45 42 39 37 36 36 36 34 34 38 40 37 40 41 45 52 55 60 63 65 67 72 75 79 86 92 98
89 83 77 72 68 66 62 59 58 56 53 50 47 45 44 41 38 36 35 34 33 32 32 30 31 34 35 37 38 40 42 46 48 50 57 60 60 63 68 74 80 84 87
83 77 72 68 65 61 59 58 56 54 51 47 43 42 40 38 35 33 31 30 28 27 26 25 26 29 30 33 34 34 37 39 39 44 51 57 54 59 62 67 73 77 79

GFSMA_250_spd_012.txt.gz
Wind_Speed
66 67 67 67 68 67 65 64 61 64 63 58 54 56 58 57 55 53 53 53 53 51 50 50 48 46 42 38 36 38 39 37 45 45 79 87 84 81 87 69 81 85 84
63 67 69 69 67 65 65 64 67 69 68 64 60 61 62 63 61 58 57 58 59 57 55 53 51 49 48 47 44 43 41 40 43 48 49 66 92 87 93 91 79 83 90
69 69 69 71 71 71 68 69 70 70 69 65 65 65 66 66 64 63 61 62 64 65 64 62 59 54 54 53 51 49 45 45 43 48 57 54 65 86 93 94 91 91 83
73 73 73 73 71 70 71 73 75 74 72 70 72 72 72 73 73 73 73 74 73 71 70 69 68 67 61 59 59 56 55 51 49 49 56 62 60 72 89 88 94 98 95
77 76 74 74 75 77 78 79 77 76 75 73 72 74 77 78 78 79 80 80 80 81 81 80 77 74 74 71 67 66 64 62 59 53 55 61 68 69 74 84 74 83 98
77 76 76 78 80 81 80 79 79 79 79 79 82 84 87 88 87 88 89 89 89 89 89 87 87 86 83 81 78 75 73 72 70 67 62 60 68 75 76 74 74 76 79
76 78 79 80 80 80 82 83 85 87 90 91 91 92 93 97 99 99 99 99 100 101 100 97 95 93 92 90 88 86 84 81 79 77 75 72 67 73 78 81 78 77 77
80 81 81 82 85 87 88 89 89 91 94 95 97 99 99 102 106 109 111 111 112 111 109 109 107 105 104 102 99 97 95 93 90 86 84 82 80 74 77 81 85 85 82
81 84 86 88 90 90 92 94 96 98 102 107 110 113 114 114 116 116 119 120 119 117 118 117 116 117 116 114 113 110 105 104 102 99 95 92 90 87 81 78 81 84 89
86 88 89 91 93 95 98 101 106 110 113 117 119 122 126 129 131 128 126 125 126 125 124 127 126 120 117 119 125 124 120 116 113 110 107 104 100 97 94 87 84 83 85
83 85 89 94 99 104 106 111 116 119 123 127 130 132 135 134 131 126 117 118 118 119 120 122 122 119 114 109 109 116 126 130 128 123 119 115 112 106 102 101 95 91 89
86 91 95 99 104 109 111 117 124 128 130 134 133 132 128 124 124 123 116 107 105 105 103 107 108 110 109 106 104 104 109 118 128 133 131 127 123 117 111 110 106 101 97
90 95 101 107 112 118 120 125 128 129 121 121 120 117 117 117 113 111 105 97 93 91 90 91 92 93 97 98 98 99 103 105 110 120 132 135 133 129 123 119 115 110 106
98 103 110 115 118 119 120 123 120 117 118 115 112 110 103 99 95 91 87 83 81 79 80 82 83 84 88 87 89 92 98 102 105 112 121 128 134 134 132 127 124 118 115
107 109 112 115 118 117 118 117 117 113 110 111 106 100 94 89 85 81 76 73 70 69 72 75 76 75 77 80 81 85 89 94 100 104 113 121 127 133 136 135 131 128 123
106 111 114 115 116 115 114 114 112 111 104 98 93 89 85 81 79 74 71 68 65 62 62 71 73 72 70 73 74 78 83 87 92 97 102 111 120 125 129 135 137 133 130
116 118 118 118 116 116 115 112 105 100 95 91 87 83 80 76 74 70 66 63 61 58 54 63 67 71 69 68 67 69 76 81 84 89 93 100 108 116 121 126 135 138 136
123 124 120 117 117 115 110 101 97 93 90 86 82 79 75 71 68 65 63 60 56 54 49 53 63 65 66 64 64 64 68 73 76 80 85 92 97 103 111 117 124 131 136
126 124 121 119 115 108 99 94 90 88 85 80 76 73 70 67 65 62 59 56 53 53 50 48 59 60 62 61 61 60 62 66 70 73 77 83 90 96 101 107 114 120 127
124 121 120 116 108 99 92 89 85 82 78 74 70 69 66 62 59 57 56 54 50 49 46 45 50 55 56 56 55 57 55 59 65 69 71 76 83 89 95 99 103 112 119
124 122 116 110 100 93 88 84 80 77 73 70 66 63 60 58 55 53 51 52 49 47 45 44 45 48 50 53 48 50 54 53 60 66 69 71 76 82 89 95 98 100 107
122 116 109 99 93 88 83 78 75 73 69 64 62 62 60 58 55 52 49 47 46 46 43 41 42 44 45 49 47 45 50 51 54 62 67 68 70 76 82 90 90 95 103
117 112 101 94 89 84 79 74 72 69 65 61 60 59 57 54 50 48 45 42 41 41 40 39 39 41 43 41 43 43 45 48 51 57 64 66 65 69 75 82 82 87 95
112 103 95 89 84 79 74 71 69 66 62 56 54 53 50 49 46 45 43 39 36 36 34 33 33 35 38 39 38 38 40 45 48 55 58 59 59 64 69 73 76 84 89
106 98 91 85 80 74 70 68 66 64 60 54 52 49 47 45 42 41 39 36 35 34 33 32 31 31 32 34 34 35 39 42 42 45 53 55 54 56 63 68 73 78 82
100 93 86 79 74 70 67 65 63 61 58 54 51 47 44 41 39 37 35 33 31 30 30 29 28 28 28 29 30 31 34 34 34 39 50 48 47 53 58 63 67 72 77

GFSMA_250_spd_015.txt.gz
Wind_Speed
71 60 60 60 57 65 69 69 71 69 66 63 61 60 60 60 59 55 52 53 54 54 52 51 49 47 45 44 42 39 36 35 40 37 40 50 69 92 90 88 81 81 72
60 63 66 68 69 72 73 75 75 73 69 68 67 66 67 67 65 62 58 60 59 58 57 57 53 52 50 50 49 47 43 40 42 47 42 48 54 72 90 88 85 84 82
67 70 75 76 78 78 79 78 74 73 73 71 70 70 70 69 68 67 66 66 65 64 63 62 63 63 62 59 56 54 54 49 45 49 53 51 54 61 78 91 94 90 79
73 74 78 81 84 84 83 76 75 73 73 73 74 74 74 74 73 72 72 72 71 71 71 71 71 70 69 68 67 63 60 59 56 52 52 59 59 58 62 73 92 92 89
79 82 86 86 83 81 81 78 77 78 78 77 77 79 81 80 80 79 79 81 81 80 80 79 80 79 78 77 76 74 70 66 66 63 60 58 63 69 66 66 83 96 95
87 87 83 79 80 79 79 81 81 81 82 83 83 82 83 83 84 84 86 86 87 88 88 89 89 87 87 86 85 83 81 76 74 73 69 66 66 65 72 74 72 80 96
80 81 82 81 80 81 82 84 85 86 87 87 87 87 89 90 92 93 94 95 96 97 99 100 99 98 97 95 94 93 92 88 84 82 81 76 73 72 70 77 80 77 80
78 79 82 83 83 84 85 87 87 87 88 89 92 94 95 98 101 106 110 112 112 114 114 115 113 112 110 108 107 106 102 101 99 94 90 88 83 81 78 74 81 84 82
78 79 80 82 85 86 86 87 90 94 99 102 105 108 109 111 113 114 117 120 119 120 123 124 124 122 122 121 120 119 118 115 110 108 103 98 96 92 88 86 81 81 84
76 78 80 82 84 85 88 93 99 104 108 110 111 111 112 113 115 115 119 122 123 125 126 123 122 120 116 114 114 115 120 125 125 121 117 112 105 103 99 95 92 87 83
75 77 79 81 86 90 96 101 106 108 109 112 112 114 115 118 122 124 123 121 120 122 121 119 115 109 107 108 108 104 107 112 120 126 127 124 120 112 108 105 100 96 93
73 75 81 87 93 98 102 108 112 112 113 113 115 114 113 115 119 120 116 113 114 117 114 112 110 107 103 100 99 101 104 105 107 113 123 127 130 125 118 114 109 104 102
79 83 88 92 99 104 107 115 114 117 114 113 111 112 113 114 114 110 103 94 89 92 93 92 93 92 89 89 90 90 93 101 106 106 111 122 128 133 131 124 120 115 110
86 90 94 101 106 111 118 117 116 113 109 107 107 108 107 101 97 93 88 81 77 76 79 80 82 81 81 80 81 79 84 91 97 104 108 113 121 129 136 135 129 124 119
90 95 103 106 111 117 118 114 112 111 106 103 101 97 94 91 88 83 78 73 67 66 71 75 73 74 72 71 75 74 77 81 87 94 100 105 112 121 128 137 139 133 128
95 102 106 112 115 117 112 112 111 105 101 96 92 90 88 84 80 76 72 68 63 57 58 71 71 70 66 65 68 68 69 74 77 85 90 95 104 113 122 129 137 141 137
101 108 112 114 115 115 115 111 106 99 93 89 86 83 80 76 74 71 67 65 62 56 51 68 65 69 66 60 61 66 65 67 71 76 82 87 95 103 112 123 129 135 142
109 112 114 115 112 116 113 107 99 93 88 84 81 79 75 72 69 67 64 60 56 52 48 57 60 64 64 61 55 59 63 62 67 72 76 81 86 94 102 111 122 129 135
114 117 116 116 118 116 108 99 92 87 83 80 77 73 71 69 66 64 61 57 54 51 45 47 55 57 56 57 57 54 57 58 62 68 72 75 79 84 91 100 111 121 130
117 119 118 117 116 110 100 93 87 82 80 77 73 70 68 66 64 63 61 57 54 51 47 44 50 51 52 51 53 53 50 52 56 62 68 71 74 77 82 89 98 108 121
119 119 116 116 110 102 94 88 83 79 76 73 70 68 65 63 61 58 55 53 51 49 45 42 45 47 48 48 48 49 47 46 53 58 63 65 70 73 76 81 89 98 108
117 116 115 110 104 94 88 82 79 76 73 71 68 66 63 60 57 53 49 47 46 46 44 40 38 39 42 45 43 41 42 44 51 54 60 62 66 71 72 74 80 87 98
114 114 109 103 95 90 83 78 75 73 71 67 64 62 60 56 54 52 49 46 44 43 41 38 37 35 37 39 40 37 37 40 45 49 56 60 61 66 70 71 75 79 88
113 109 104 97 91 86 80 75 72 71 68 64 61 58 56 53 50 48 46 43 41 38 37 35 35 32 33 34 35 35 35 38 42 46 50 55 57 60 64 67 71 75 81
108 107 101 94 87 81 75 73 71 69 65 62 59 55 51 48 45 43 41 39 36 35 34 32 31 30 29 30 32 32 34 36 37 40 46 49 52 54 58 62 68 70 74
106 102 96 90 83 76 73 71 69 66 63 61 56 50 46 42 40 38 37 36 34 33 32 30 28 28 28 27 27 29 30 31 33 37 42 43 47 51 54 56 61 66 69

GFSMA_250_spd_018.txt.gz
Wind_Speed
87 83 71 71 68 63 63 66 69 71 73 77 75 70 65 61 61 61 58 58 57 55 54 54 55 57 55 53 49 47 46 43 40 37 35 39 41 55 82 90 86 78 77
78 75 71 70 67 67 67 73 77 80 81 82 74 69 68 66 66 67 66 63 62 58 56 55 57 60 61 59 56 53 51 48 45 44 42 40 46 52 70 87 88 84 83
71 70 73 73 72 73 75 82 85 87 86 77 74 75 73 71 71 70 69 68 66 67 65 62 62 62 62 63 62 59 58 57 55 50 49 47 46 49 59 78 94 91 86
73 75 75 79 81 83 86 88 88 84 79 78 77 76 76 75 73 73 71 72 71 71 69 69 71 71 70 68 67 67 65 64 62 60 55 53 53 54 56 73 92 98 90
75 79 81 84 88 89 88 83 80 80 78 78 80 79 79 79 76 75 73 74 76 77 78 75 78 78 76 77 77 77 76 73 71 69 66 62 58 60 62 63 71 92 101
84 88 89 89 86 84 83 81 82 82 83 81 82 80 77 75 75 79 79 82 84 84 85 86 86 87 86 87 87 85 84 82 80 78 76 72 67 65 67 71 69 74 98
78 79 79 80 81 83 84 83 83 83 83 79 79 79 80 82 83 86 89 92 94 95 96 95 96 95 96 95 98 98 97 93 90 88 85 82 78 74 72 74 77 76 81
74 78 81 82 82 83 82 83 84 84 83 80 84 87 90 93 97 99 101 106 107 108 110 113 112 112 112 108 108 110 109 105 103 100 96 93 89 85 81 78 80 84 83
76 79 80 82 82 83 83 82 80 82 88 90 91 97 102 104 105 109 114 114 115 118 118 119 121 122 122 124 127 126 124 119 117 113 109 105 101 97 91 87 85 86 88
77 79 80 80 80 81 79 80 87 90 92 99 103 108 110 114 116 115 118 118 118 120 119 119 118 120 118 115 115 115 116 126 130 128 123 117 113 108 103 97 93 92 93
72 71 72 73 76 79 85 89 94 96 101 106 111 116 119 121 122 119 111 114 117 118 115 114 113 114 111 106 105 105 102 107 113 120 128 133 126 121 115 109 104 99 99
66 67 71 77 82 87 90 94 98 103 107 113 118 119 119 117 114 114 115 113 114 116 110 106 103 101 101 98 96 95 96 100 104 105 113 120 130 123 125 121 115 112 107
70 75 79 84 86 90 93 98 104 109 112 114 116 114 109 108 108 108 108 103 100 101 98 95 91 87 86 87 87 86 86 87 93 100 104 107 115 123 122 125 127 122 118
74 79 83 88 93 97 102 106 110 110 111 111 110 106 105 104 102 100 96 91 86 85 85 85 82 77 75 75 78 80 82 81 85 90 99 103 108 113 116 116 125 127 128
78 84 90 94 98 104 108 111 112 111 109 109 105 101 100 97 94 91 87 82 75 71 74 80 73 69 67 67 69 73 76 76 79 83 90 96 105 110 114 114 117 127 131
84 90 96 101 104 109 111 110 109 110 107 105 101 98 95 90 88 84 78 74 69 62 62 75 69 66 63 61 62 64 69 74 75 77 82 87 95 104 111 113 115 119 129
93 97 102 105 108 108 109 109 108 109 106 102 96 91 88 84 79 75 71 68 65 61 55 72 63 64 63 58 56 58 62 68 69 73 76 78 84 92 99 108 116 118 123
101 105 107 109 107 108 109 108 108 105 100 93 88 84 80 76 72 70 67 64 61 58 53 62 62 60 61 58 55 54 56 63 65 66 71 74 77 82 89 97 107 118 122
106 109 112 109 107 109 110 109 104 97 90 86 82 78 74 70 69 67 63 60 58 56 53 54 58 55 57 56 55 56 52 55 60 60 67 70 73 77 81 88 98 108 118
111 114 112 108 109 109 108 103 95 88 84 80 76 72 69 67 65 64 61 59 57 54 51 49 50 49 49 49 53 54 54 51 52 57 61 65 69 73 76 81 89 98 108
115 112 108 109 109 108 104 95 87 83 79 76 72 69 67 64 63 61 58 57 55 53 49 47 45 42 43 44 46 48 50 49 47 51 59 62 66 68 72 77 82 90 99
111 108 110 111 110 104 95 89 83 79 76 73 70 67 63 61 61 60 56 53 50 48 47 44 42 40 40 39 42 43 44 45 45 45 54 59 61 65 69 74 78 83 91
107 109 109 109 104 96 91 84 80 77 73 71 67 63 60 58 57 56 53 50 46 44 43 41 40 36 37 36 37 37 38 40 42 42 50 56 59 61 66 69 74 77 83
109 109 110 105 97 92 85 81 78 74 71 68 64 60 56 54 53 51 48 45 42 40 39 37 34 34 32 32 33 34 34 35 38 41 47 55 57 55 61 66 69 73 77
109 109 105 100 94 88 84 79 75 72 68 64 60 57 53 52 49 46 44 42 40 39 37 35 32 30 28 27 29 30 31 32 34 39 46 51 53 52 55 62 65 69 72
110 107 99 96 92 85 82 77 72 69 64 60 56 53 52 48 44 42 41 39 37 36 34 31 30 27 25 24 25 26 27 29 33 37 42 44 47 48 51 55 60 63 66